Satellite-Ground Cal/Val Site Overpasses Predictions

Prediction of Satellite NPP Overpassing Cal/Val Site: Antarctic Dome C

Ground Cal/Val Site Location: Latitude: -75.10, Longitude: 123.35; Satellite-Ground Site NADIR distance within 100 km.

Table of predicted overpasses for the next 14.0 days since TLE Epoch: 1/23/2025
Interval Starting Time Ending Time Minimum Distance Time Minimum Distance (km)
1 01/24/2025 15:02:13 01/24/2025 15:02:35 01/24/2025 15:02:24 64.68
2 01/25/2025 14:43:21 01/25/2025 14:43:47 01/25/2025 14:43:34 44.70
3 01/26/2025 07:45:04 01/26/2025 07:45:23 01/26/2025 07:45:13 73.52
4 01/27/2025 07:26:11 01/27/2025 07:26:38 01/27/2025 07:26:25 34.17
5 01/30/2025 14:49:37 01/30/2025 14:50:06 01/30/2025 14:49:52 9.35
6 02/01/2025 07:32:26 02/01/2025 07:32:56 02/01/2025 07:32:41 2.45
7 02/04/2025 14:55:54 02/04/2025 14:56:23 02/04/2025 14:56:08 27.32
